Hourly Weather Holovuriv

Today, 6 May, Thursday

Time Temperature Precipitation Wind Pressure Humidity
00:00 +10°C° 0 mm 7 mps 748 mmHg 66%
01:00 +9°C° 0 mm 7 mps 747 mmHg 68%
02:00 +9°C° 0 mm 7 mps 747 mmHg 70%
03:00 +9°C° 0 mm 7 mps 746 mmHg 71%
04:00 +9°C° 0 mm 7 mps 746 mmHg 73%
05:00 +9°C° 0 mm 8 mps 746 mmHg 75%
06:00 +9°C° 0 mm 8 mps 746 mmHg 74%
07:00 +10°C° 0 mm 8 mps 746 mmHg 74%
08:00 +11°C° 0 mm 8 mps 746 mmHg 73%
09:00 +10°C° 0.3 mm 8 mps 747 mmHg 77%
10:00 +10°C° 0.3 mm 8 mps 747 mmHg 82%
11:00 +9°C° 0.3 mm 8 mps 748 mmHg 86%
12:00 +9°C° 0.1 mm 7 mps 749 mmHg 80%
13:00 +10°C° 0.1 mm 6 mps 749 mmHg 74%
14:00 +10°C° 0.1 mm 5 mps 750 mmHg 68%
15:00 +12°C° 0 mm 4 mps 750 mmHg 64%
16:00 +13°C° 0 mm 4 mps 750 mmHg 60%
17:00 +13°C° 0 mm 3 mps 750 mmHg 56%
18:00 +12°C° 0 mm 3 mps 751 mmHg 58%
19:00 +12°C° 0 mm 2 mps 751 mmHg 60%
20:00 +10°C° 0 mm 2 mps 752 mmHg 62%
21:00 +9°C° 0 mm 2 mps 752 mmHg 62%
22:00 +10°C° 0 mm 1 mps 752 mmHg 62%
23:00 +9°C° 0 mm 1 mps 752 mmHg 62%

Tomorrow, 7 May, Friday

Time Temperature Precipitation Wind Pressure Humidity
00:00 +8°C° 0 mm 2 mps 752 mmHg 64%
01:00 +8°C° 0 mm 2 mps 752 mmHg 66%
02:00 +8°C° 0 mm 3 mps 752 mmHg 69%
03:00 +8°C° 0 mm 3 mps 752 mmHg 71%
04:00 +8°C° 0 mm 3 mps 752 mmHg 73%
05:00 +8°C° 0 mm 4 mps 751 mmHg 75%
06:00 +8°C° 0.3 mm 4 mps 751 mmHg 77%
07:00 +8°C° 0.3 mm 4 mps 751 mmHg 79%
08:00 +8°C° 0.3 mm 5 mps 751 mmHg 81%
09:00 +10°C° 0.1 mm 5 mps 751 mmHg 78%
10:00 +13°C° 0.1 mm 6 mps 751 mmHg 74%
11:00 +14°C° 0.1 mm 6 mps 750 mmHg 70%
12:00 +16°C° 0.1 mm 6 mps 750 mmHg 68%
13:00 +17°C° 0.1 mm 6 mps 749 mmHg 65%
14:00 +19°C° 0.1 mm 6 mps 749 mmHg 62%
15:00 +19°C° 0.4 mm 5 mps 748 mmHg 66%
16:00 +17°C° 0.4 mm 5 mps 748 mmHg 71%
17:00 +17°C° 0.4 mm 4 mps 748 mmHg 75%
18:00 +15°C° 0.7 mm 4 mps 748 mmHg 81%
19:00 +14°C° 0.7 mm 3 mps 749 mmHg 88%
20:00 +13°C° 0.7 mm 3 mps 749 mmHg 94%
21:00 +12°C° 0.1 mm 3 mps 749 mmHg 94%
22:00 +12°C° 0.1 mm 3 mps 749 mmHg 93%
23:00 +12°C° 0.1 mm 3 mps 750 mmHg 92%

Day after tomorrow, 8 May, Saturday

Time Temperature Precipitation Wind Pressure Humidity
00:00 +11°C° 0 mm 4 mps 750 mmHg 92%
01:00 +11°C° 0 mm 4 mps 751 mmHg 91%
02:00 +9°C° 0 mm 5 mps 752 mmHg 90%
03:00 +10°C° 0 mm 4 mps 752 mmHg 91%
04:00 +9°C° 0 mm 3 mps 753 mmHg 92%
05:00 +8°C° 0 mm 3 mps 753 mmHg 93%
06:00 +9°C° 0 mm 3 mps 754 mmHg 87%
07:00 +10°C° 0 mm 2 mps 754 mmHg 80%
08:00 +12°C° 0 mm 2 mps 755 mmHg 73%
09:00 +13°C° 0 mm 2 mps 755 mmHg 68%
10:00 +14°C° 0 mm 2 mps 755 mmHg 63%
11:00 +15°C° 0 mm 2 mps 755 mmHg 58%
12:00 +16°C° 0 mm 2 mps 755 mmHg 56%
13:00 +17°C° 0 mm 2 mps 755 mmHg 54%
14:00 +17°C° 0 mm 2 mps 755 mmHg 52%
15:00 +18°C° 0 mm 2 mps 754 mmHg 55%
16:00 +18°C° 0 mm 2 mps 754 mmHg 57%
17:00 +18°C° 0 mm 3 mps 754 mmHg 59%
18:00 +17°C° 0 mm 3 mps 754 mmHg 64%
19:00 +14°C° 0 mm 3 mps 753 mmHg 70%
20:00 +13°C° 0 mm 3 mps 753 mmHg 75%
21:00 +12°C° 0 mm 3 mps 753 mmHg 77%
22:00 +12°C° 0 mm 3 mps 753 mmHg 78%
23:00 +12°C° 0 mm 4 mps 753 mmHg 80%

9 May, Sunday

Time Temperature Precipitation Wind Pressure Humidity
00:00 +12°C° 0 mm 4 mps 753 mmHg 82%
01:00 +11°C° 0 mm 4 mps 753 mmHg 84%
02:00 +11°C° 0 mm 4 mps 753 mmHg 86%

10 May, Monday

Time Temperature Precipitation Wind Pressure Humidity

11 May, Tuesday

Time Temperature Precipitation Wind Pressure Humidity
Show more